Total_Precipitation_Accumulation
0.04 0.06 0.07 0.08 0.09 0.16 0.19 0.17 0.25 0.32 0.34 0.39 0.53 0.73 0.92 0.99 1.16 1.25 1.42 1.48 1.78 1.96 2.13 2.45 2.91 3.36 3.86 3.97 4.10 4.09 4.23 4.50 4.69 4.87 4.92 5.26 5.27 5.12 5.28 5.51 5.46 5.61 5.68 5.39
0.05 0.05 0.04 0.04 0.06 0.17 0.22 0.18 0.29 0.41 0.46 0.52 0.61 0.79 0.99 1.12 1.13 1.40 1.67 1.73 2.21 2.38 2.33 2.52 3.03 3.42 3.85 4.11 4.25 4.45 4.60 4.66 4.80 5.29 5.73 6.09 6.42 6.40 6.33 6.48 6.47 6.27 6.14 5.99
0.05 0.06 0.06 0.06 0.09 0.15 0.21 0.26 0.35 0.50 0.50 0.61 0.75 1.16 1.27 1.25 1.29 1.51 1.84 1.98 2.35 2.51 2.64 2.57 2.71 3.09 3.52 3.90 4.13 4.37 4.69 5.07 5.59 6.23 6.67 6.95 7.28 7.42 7.16 6.88 6.69 6.44 6.26 6.07
0.06 0.06 0.08 0.08 0.11 0.12 0.17 0.20 0.29 0.36 0.47 0.71 0.76 1.37 1.54 1.50 1.60 1.72 1.89 1.95 2.20 2.19 2.38 2.52 2.58 2.83 3.16 3.48 3.86 4.28 4.71 5.34 6.23 6.91 7.30 7.63 7.76 7.77 7.60 7.30 6.87 6.43 6.05 5.63
0.09 0.07 0.08 0.08 0.10 0.09 0.11 0.13 0.20 0.25 0.36 0.60 0.69 1.23 1.58 1.56 1.78 1.89 2.08 2.11 2.11 2.14 2.08 2.17 2.29 2.50 2.90 3.27 3.67 4.12 4.57 5.31 6.04 6.67 7.23 7.67 7.81 7.76 7.51 7.04 6.47 5.92 5.46 4.98
0.08 0.07 0.06 0.07 0.08 0.08 0.09 0.15 0.24 0.32 0.54 0.86 0.69 1.05 1.70 1.85 2.02 2.16 2.13 2.18 2.39 2.34 2.17 2.15 2.14 2.25 2.51 2.90 3.29 3.75 4.18 4.77 5.41 5.88 6.47 6.85 7.01 6.88 6.45 5.87 5.24 4.85 4.58 4.24
0.13 0.11 0.08 0.08 0.10 0.09 0.12 0.27 0.63 0.81 0.91 0.97 0.69 1.12 1.91 2.08 2.01 2.12 2.20 2.29 2.44 2.42 2.31 2.20 2.16 2.19 2.35 2.61 2.95 3.25 3.49 3.98 4.32 4.68 5.18 5.52 5.55 5.37 5.05 4.74 4.48 4.07 3.64 3.25
0.27 0.24 0.13 0.09 0.11 0.13 0.14 0.25 0.68 1.05 0.99 0.95 1.01 1.68 2.28 2.17 1.96 1.91 2.05 2.15 2.21 2.14 2.13 2.11 2.10 2.18 2.27 2.28 2.51 2.69 2.76 3.01 3.27 3.48 3.72 3.82 3.84 3.82 3.78 3.67 3.35 2.97 2.56 2.22
0.37 0.30 0.13 0.09 0.09 0.10 0.15 0.23 0.31 0.56 0.66 1.03 1.55 2.13 2.59 2.30 2.14 2.07 1.93 1.79 1.96 1.99 1.95 2.01 2.10 2.22 2.24 2.13 2.11 2.22 2.30 2.35 2.46 2.54 2.67 2.74 2.75 2.82 2.80 2.75 2.59 2.32 2.11 1.87
0.29 0.28 0.16 0.09 0.08 0.11 0.14 0.21 0.33 0.60 1.09 1.41 1.71 2.28 2.84 2.77 2.68 2.61 2.27 1.95 2.00 2.03 2.04 2.00 1.96 2.05 2.09 1.94 1.91 2.01 2.10 2.06 2.07 2.02 2.02 1.96 2.09 2.14 2.16 2.09 1.94 1.90 1.90 1.78
0.25 0.28 0.23 0.14 0.17 0.20 0.19 0.25 0.36 0.61 0.85 1.36 2.01 2.61 2.56 2.83 2.92 2.77 2.41 2.04 2.03 2.01 2.08 2.08 2.03 1.96 1.92 1.89 1.86 1.77 1.77 1.77 1.73 1.71 1.77 1.72 1.70 1.70 1.66 1.53 1.46 1.50 1.53 1.51
0.26 0.31 0.35 0.23 0.19 0.19 0.23 0.28 0.37 0.78 0.90 1.02 1.76 2.67 2.57 2.87 3.00 2.80 2.69 2.39 2.17 2.21 2.17 2.07 2.03 1.93 1.89 1.77 1.69 1.62 1.59 1.55 1.53 1.55 1.61 1.53 1.46 1.44 1.44 1.39 1.30 1.28 1.31 1.27
0.30 0.49 0.72 0.78 0.61 0.36 0.29 0.28 0.35 0.48 0.70 1.07 1.74 2.65 2.69 2.76 2.68 2.54 2.48 2.43 2.47 2.69 2.54 2.28 2.06 1.80 1.66 1.53 1.42 1.38 1.40 1.41 1.43 1.50 1.53 1.50 1.42 1.34 1.29 1.26 1.16 1.07 1.12 1.14
0.29 0.52 0.92 1.38 1.10 0.57 0.40 0.36 0.42 0.54 0.87 1.21 1.54 2.16 2.48 2.64 2.66 2.67 2.66 2.63 2.55 2.40 2.11 1.90 1.75 1.58 1.51 1.41 1.36 1.29 1.25 1.23 1.23 1.29 1.37 1.40 1.37 1.30 1.21 1.18 1.18 1.13 1.12 1.07
0.37 0.62 0.65 0.65 0.54 0.44 0.43 0.43 0.50 0.58 0.71 1.13 1.46 1.95 2.42 2.62 2.73 2.59 2.65 2.54 2.23 2.03 1.92 1.79 1.71 1.64 1.52 1.41 1.31 1.21 1.14 1.11 1.11 1.17 1.19 1.17 1.16 1.17 1.09 1.06 1.10 1.08 1.09 1.02
0.43 0.72 0.67 0.61 0.51 0.52 0.62 0.62 0.66 0.67 0.78 1.04 1.45 2.05 2.33 2.56 2.69 2.62 2.62 2.42 2.28 2.18 2.08 1.97 1.90 1.78 1.61 1.38 1.29 1.23 1.19 1.18 1.16 1.15 1.11 1.03 1.00 0.99 0.94 0.92 0.90 0.90 0.95 1.00
0.51 0.76 0.91 0.88 0.58 0.80 1.27 1.00 0.90 1.01 1.00 1.28 1.75 2.01 1.92 2.02 2.18 2.31 2.39 2.35 2.25 2.17 2.15 2.12 2.04 1.94 1.76 1.55 1.43 1.33 1.28 1.21 1.19 1.19 1.06 0.97 0.96 0.93 0.88 0.84 0.88 0.88 0.91 0.97
0.51 0.81 0.93 0.97 1.12 1.84 1.76 1.13 0.99 1.13 1.27 1.23 1.41 1.51 1.54 1.60 1.81 1.97 2.07 2.23 2.29 2.24 2.16 2.12 2.03 1.90 1.81 1.66 1.47 1.29 1.16 1.11 1.19 1.21 1.08 0.94 0.93 0.93 0.91 0.92 0.96 0.98 0.96 0.98
0.39 0.72 1.04 1.23 1.64 1.97 1.80 1.25 1.11 1.46 1.81 1.34 1.26 1.28 1.26 1.32 1.56 1.97 2.09 2.21 2.36 2.22 2.16 2.11 1.97 1.84 1.77 1.59 1.39 1.23 1.18 1.11 1.11 1.10 1.01 0.89 0.83 0.87 0.85 0.86 0.90 0.94 0.98 1.00
0.36 0.62 1.14 1.49 2.02 2.32 2.12 1.10 0.80 1.36 2.32 1.50 1.23 1.30 1.40 1.56 1.97 2.05 1.90 1.91 2.08 2.12 2.20 2.14 1.90 1.73 1.62 1.39 1.18 1.11 1.10 1.03 0.99 0.91 0.86 0.80 0.82 0.82 0.80 0.81 0.85 0.92 0.97 0.97
0.81 0.97 1.25 1.61 2.11 2.16 1.36 0.81 0.93 2.10 2.42 1.66 1.47 1.51 1.64 1.86 1.98 1.73 1.55 1.59 1.73 1.89 1.96 1.87 1.73 1.59 1.39 1.19 1.12 1.15 1.05 0.92 0.79 0.73 0.75 0.77 0.81 0.85 0.81 0.86 0.89 0.92 0.93 1.00
1.09 1.42 1.61 1.83 2.24 2.30 1.12 0.90 1.48 1.83 1.41 1.28 1.27 1.30 1.44 1.40 1.29 1.27 1.36 1.44 1.57 1.71 1.71 1.61 1.55 1.43 1.28 1.16 1.16 1.22 1.09 0.88 0.76 0.75 0.78 0.80 0.82 0.71 0.68 0.86 0.88 0.85 0.92 0.98
0.96 1.28 1.60 1.90 2.16 1.80 1.16 1.16 1.24 1.19 1.25 1.19 1.19 1.14 1.21 1.21 1.17 1.20 1.23 1.34 1.44 1.50 1.48 1.36 1.26 1.28 1.28 1.22 1.19 1.23 1.12 0.93 0.87 0.94 0.93 0.86 0.84 0.84 0.86 0.89 0.84 0.83 0.86 0.82
0.95 0.80 1.10 1.46 1.43 1.25 1.09 1.03 1.00 0.99 1.06 0.97 0.97 0.99 1.10 1.24 1.26 1.30 1.22 1.20 1.28 1.32 1.29 1.27 1.23 1.24 1.25 1.18 1.07 1.10 1.03 0.95 0.99 1.02 0.95 0.88 0.90 0.96 0.95 0.87 0.72 0.70 0.69 0.67
1.03 1.13 1.46 1.73 1.48 1.33 1.18 0.99 0.88 0.84 0.80 0.78 0.82 0.88 0.99 1.14 1.18 1.19 1.19 1.13 1.06 1.02 1.04 1.12 1.21 1.16 1.08 1.03 0.92 0.91 0.92 0.93 1.06 1.06 0.95 0.86 0.79 0.80 0.84 0.70 0.56 0.54 0.52 0.52
0.97 1.39 1.99 1.85 1.52 1.64 1.36 1.00 0.84 0.85 0.93 0.91 0.83 0.77 0.79 0.90 0.97 1.02 1.07 0.99 0.88 0.82 0.86 0.94 0.99 0.96 0.95 0.92 0.87 0.87 0.83 0.82 0.99 1.01 0.92 0.78 0.66 0.62 0.57 0.53 0.53 0.48 0.42 0.43